Amsterdam, Netherlands

2:22 AM CEST on July 28, 2017 (GMT +0200)
Schiphol

Weather History for EHAM - March, 2013

Change the Weather History Date:

Tuesday, March 12, 2013

  Actual Average Record
Temperature  
Mean Temperature 28 °F -  
Max Temperature 34 °F 50 °F 60 °F (2007)
Min Temperature 23 °F 38 °F 21 °F (2006)
Degree Days  
Heating Degree Days 36    
Moisture  
Dew Point 17 °F    
Average Humidity 61    
Maximum Humidity 86    
Minimum Humidity 33    
Precipitation  
Precipitation 0.00 in - - ()
Sea Level Pressure  
Sea Level Pressure 29.75 in    
Wind  
Wind Speed 17 mph ()    
Max Wind Speed 25 mph    
Max Gust Speed -    
Visibility 6.2 miles    
Events      
Averages and records for this station are not official NWS values.
T = Trace of Precipitation, MM = Missing Value Source: Averaged Metar Reports

Daily Weather History Graph

Daily Weather History Graph

Search for Another Location

Airport or City:

Trip Planner

Search our weather history database for the weather conditions in past years. The results will help you decide how hot, cold, wet, or windy it might be!

Date:

Astronomy

Mar. 12, 2013 Rise Set
Actual Time 7:02 AM CET 6:40 PM CET
Civil Twilight 6:28 AM CET 7:14 PM CET
Nautical Twilight 5:48 AM CET 7:53 PM CET
Astronomical Twilight 5:08 AM CET 8:34 PM CET
Moon 6:50 AM CET (3/12) 7:52 PM CET (3/12)
Length of Visible Light 12h 45m
Length of Day
11h 38m
New Moon, 0% of the Moon is Illuminated
Mar 12
New Moon
Mar 19
First Quarter
Mar 27
Full
Apr 3
Last Quarter
Apr 10
New

Hourly Weather History & Observations

Time (CET) Temp. Windchill Dew Point Humidity Pressure Visibility Wind Dir Wind Speed Gust Speed Precip Events Conditions
12:25 AM 28.4 °F 15.1 °F 19.4 °F 69% 29.80 in 6.2 mi NE 20.7 mph - N/A   Scattered Clouds
12:55 AM 28.4 °F 14.4 °F 19.4 °F 69% 29.80 in 6.2 mi NE 23.0 mph - N/A   Scattered Clouds
1:00 AM 28 °F - 20 °F 62% 29.81 in 28 mi NE 22.4 mph - -   Partly Cloudy
1:25 AM 28.4 °F 15.1 °F 19.4 °F 69% 29.77 in 6.2 mi NE 20.7 mph - N/A   Scattered Clouds
1:55 AM 28.4 °F 15.1 °F 21.2 °F 74% 29.77 in 6.2 mi NE 20.7 mph - N/A   Scattered Clouds
2:25 AM 28.4 °F 15.4 °F 21.2 °F 74% 29.77 in 6.2 mi ENE 19.6 mph - N/A   Partly Cloudy
2:55 AM 28.4 °F 14.7 °F 19.4 °F 69% 29.77 in 6.2 mi NE 21.9 mph - N/A   Partly Cloudy
3:25 AM 28.4 °F 14.4 °F 19.4 °F 69% 29.77 in 6.2 mi NE 23.0 mph - N/A   Partly Cloudy
3:55 AM 26.6 °F 12.4 °F 19.4 °F 74% 29.77 in 6.2 mi NE 21.9 mph - N/A   Partly Cloudy
4:00 AM 27 °F - 19 °F 62% 29.77 in 28 mi NE 22.4 mph - -   Overcast
4:25 AM 26.6 °F 13.1 °F 19.4 °F 74% 29.77 in 6.2 mi NE 19.6 mph - N/A   Partly Cloudy
4:55 AM 28.4 °F 15.1 °F 17.6 °F 64% 29.74 in 6.2 mi NE 20.7 mph - N/A   Partly Cloudy
5:25 AM 26.6 °F 12.0 °F 17.6 °F 69% 29.74 in 6.2 mi NE 23.0 mph - N/A   Partly Cloudy
5:55 AM 26.6 °F 11.7 °F 17.6 °F 69% 29.74 in 6.2 mi NE 24.2 mph - N/A   Partly Cloudy
6:25 AM 26.6 °F 12.0 °F 17.6 °F 69% 29.74 in 6.2 mi NE 23.0 mph - N/A   Partly Cloudy
6:55 AM 26.6 °F 12.0 °F 17.6 °F 69% 29.74 in 6.2 mi NE 23.0 mph - N/A   Partly Cloudy
7:00 AM 27 °F - 16 °F 51% 29.76 in 28 mi NE 22.4 mph - -   Partly Cloudy
7:25 AM 26.6 °F 11.4 °F 17.6 °F 69% 29.74 in 6.2 mi NE 25.3 mph - N/A   Partly Cloudy
7:55 AM 26.6 °F 12.4 °F 17.6 °F 69% 29.74 in 6.2 mi ENE 21.9 mph - N/A   Partly Cloudy
8:55 AM 28.4 °F 15.1 °F 17.6 °F 64% 29.77 in 6.2 mi NE 20.7 mph - N/A   Partly Cloudy
9:25 AM 28.4 °F 14.7 °F 15.8 °F 59% 29.77 in 6.2 mi NE 21.9 mph - N/A   Partly Cloudy
9:55 AM 28.4 °F 14.4 °F 14.0 °F 55% 29.77 in 6.2 mi NE 23.0 mph - N/A   Partly Cloudy
10:00 AM 28 °F - 15 °F 44% 29.78 in 25 mi NE 22.4 mph - -   Overcast
10:25 AM 28.4 °F 14.1 °F 12.2 °F 51% 29.77 in 6.2 mi NE 24.2 mph - N/A   Partly Cloudy
10:55 AM 30.2 °F 17.4 °F 14.0 °F 51% 29.77 in 6.2 mi ENE 20.7 mph - N/A   Partly Cloudy
11:25 AM 30.2 °F 16.8 °F 14.0 °F 51% 29.77 in 6.2 mi NE 23.0 mph - N/A   Partly Cloudy
11:55 AM 28.4 °F 14.4 °F 14.0 °F 55% 29.77 in 6.2 mi NE 23.0 mph - N/A   Partly Cloudy
12:25 PM 30.2 °F 18.1 °F 14.0 °F 51% 29.77 in 6.2 mi NE 18.4 mph - N/A   Partly Cloudy
12:55 PM 28.4 °F 15.4 °F 14.0 °F 55% 29.77 in 6.2 mi NE 19.6 mph - N/A   Partly Cloudy
1:00 PM 30 °F - 12 °F 33% 29.78 in 28 mi NE 20.1 mph - -   Partly Cloudy
1:25 PM 32.0 °F 20.5 °F 14.0 °F 48% 29.74 in - NE 18.4 mph - N/A   Clear
1:55 PM 32.0 °F 20.5 °F 15.8 °F 51% 29.74 in - NE 18.4 mph - N/A   Clear
2:25 PM 33.8 °F 23.2 °F 15.8 °F 48% 29.74 in - NNE 17.3 mph - N/A   Clear
2:55 PM 32.0 °F 20.5 °F 14.0 °F 48% 29.74 in - NNE 18.4 mph - N/A   Clear
3:25 PM 33.8 °F 23.5 °F 14.0 °F 44% 29.74 in - NE 16.1 mph - N/A   Clear
3:55 PM 33.8 °F 23.9 °F 14.0 °F 44% 29.71 in - NE 15.0 mph - N/A   Clear
4:25 PM 33.8 °F 23.9 °F 14.0 °F 44% 29.71 in - NNE 15.0 mph - N/A   Clear
4:55 PM 33.8 °F 24.3 °F 15.8 °F 48% 29.71 in - NE 13.8 mph - N/A   Clear
5:25 PM 32.0 °F 22.5 °F 15.8 °F 51% 29.71 in - NE 12.7 mph - N/A   Clear
5:55 PM 32.0 °F 22.5 °F 17.6 °F 55% 29.71 in - NNE 12.7 mph - N/A   Clear
6:25 PM 30.2 °F 20.2 °F 19.4 °F 64% 29.71 in - North 12.7 mph - N/A   Clear
6:55 PM 30.2 °F 20.8 °F 19.4 °F 64% 29.71 in - NNE 11.5 mph - N/A   Clear
7:00 PM 30 °F - 19 °F 50% 29.74 in 28 mi North 8.9 mph - -   Partly Cloudy
7:25 PM 28.4 °F 19.1 °F 19.4 °F 69% 29.74 in - North 10.4 mph - N/A   Clear
7:55 PM 28.4 °F 20.4 °F 17.6 °F 64% 29.74 in - North 8.1 mph - N/A   Clear
8:25 PM 28.4 °F 20.4 °F 17.6 °F 64% 29.74 in - North 8.1 mph - N/A   Clear
8:55 PM 28.4 °F 20.4 °F 19.4 °F 69% 29.74 in - NNE 8.1 mph - N/A   Clear
9:25 PM 26.6 °F 20.0 °F 19.4 °F 74% 29.74 in - NNE 5.8 mph - N/A   Clear
9:55 PM 26.6 °F 21.2 °F 19.4 °F 74% 29.74 in - NNE 4.6 mph - N/A   Clear
10:00 PM 27 °F - 19 °F 61% 29.75 in 25 mi NNE 4.5 mph - -  
10:25 PM 26.6 °F - 19.4 °F 74% 29.74 in - NNE 2.3 mph - N/A   Clear
10:55 PM 26.6 °F - 19.4 °F 74% 29.71 in - North 2.3 mph - N/A   Clear
11:25 PM 23.0 °F 17.0 °F 19.4 °F 86% 29.74 in - NW 4.6 mph - N/A   Clear
11:55 PM 24.8 °F - 19.4 °F 80% 29.71 in - NW 2.3 mph - N/A   Clear